Regional Weather Roundup
Issued by NWS Burlington, VT

Home | Current Version | Previous Version | Text Only | Print | Product List | Glossary On
Versions: 1 2 3 4 5 6 7 8 9 10 11 12 13 14 15 16 17 18 19 20 21 22 23 24 25 26 27 28 29 30 31 32 33 34 35 36 37 38 39 40 41 42 43 44 45 46 47 48 49 50
000
ASUS41 KBTV 260130
RWRBTV
VERMONT REGIONAL WEATHER ROUNDUP
NATIONAL WEATHER SERVICE BURLINGTON VT
900 PM EDT FRI JUL 25 2014

NOTE: "FAIR" INDICATES FEW OR NO CLOUDS BELOW 12,000 FEET WITH NO
SIGNIFICANT WEATHER AND/OR OBSTRUCTIONS TO VISIBILITY.

* THESE REPORTS ARE NOT UNDER NWS QUALITY CONTROL AND/OR DO NOT
  REPORT WEATHER SUCH AS PRECIPITATION AND FOG.

VTZ001>019-260200-
_____VERMONT_____


CITY           SKY/WX    TMP DP  RH WIND       PRES   REMARKS
BURLINGTON     PTCLDY    73  55  53 W5        29.91R
MONTPELIER     CLEAR     64  57  78 S3        29.98R
MORRISVILLE    CLEAR     63  58  83 CALM      29.95R
ST. JOHNSBURY*   N/A     65  59  81 MISG      29.92R
LYNDONVILLE*   FAIR      66  55  68 CALM      29.97R
MIDDLEBURY*    FAIR      69  60  73 SE3       29.94R
RUTLAND*       CLEAR     66  57  72 SE5       29.98R
SPRINGFIELD    CLEAR     67  59  75 CALM      29.97R
HIGHGATE*      FAIR      69  56  62 CALM      29.91R
NEWPORT*       FAIR     N/A N/A N/A CALM      29.94R
BENNINGTON     CLEAR     61  58  90 S5        29.99R FOG
GALLUP MILLS*    N/A     43 N/A N/A MISG        N/A
UNION VILLAGE*   N/A     64 N/A N/A MISG        N/A
MT. MANSFIELD*   N/A     57 N/A N/A NW16        N/A

_____LAKE CHAMPLAIN_____


CITY           SKY/WX    TMP DP  RH WIND       PRES   REMARKS
COLCHESTER RF*   N/A     75  54  46 W13         N/A
DIAMOND ISL*     N/A     73  55  53 SW6         N/A

$$

NYZ007-026>031-035-052-083-260200-
_____NORTHERN NEW YORK_____


CITY           SKY/WX    TMP DP  RH WIND       PRES   REMARKS
PLATTSBURGH    CLEAR     70  55  59 CALM      29.91R
SARANAC LAKE   CLEAR     61  50  67 SW5       29.98R
MASSENA        CLEAR     66  54  65 S12       29.92R
OGDENSBURG*    CLEAR     64  55  72 S5        29.93R
POTSDAM*       CLEAR     64  55  72 SW7       29.94R
PARISHVILLE*     N/A     63 N/A N/A S5          N/A
WATERTOWN      CLEAR     65  54  67 S5        29.95S
FT DRUM        CLEAR     63  56  79 S7        29.96S
ALBANY         PTCLDY    72  59  63 CALM      29.97R
GLENS FALLS    CLEAR     72  52  49 W8        29.95R

$$
NHZ002-005-011-260200-
_____NEW HAMPSHIRE_____


CITY           SKY/WX    TMP DP  RH WIND       PRES   REMARKS
LEBANON        CLEAR     66  59  78 S7        29.94R
KEENE          CLEAR     64  54  68 CALM      29.99R
MT WASHINGTON  FOG       46  46 100 W38         N/A  VSB 0
PLYMOUTH       FAIR      63  61  93 CALM      29.95R FOG
WHITEFIELD     CLEAR     65  57  75 CALM      29.95R

$$

_____REGIONAL QUEBEC LOCATIONS_____


CITY           SKY/WX    TMP DP  RH WIND       PRES   REMARKS
MONTREAL       PTCLDY    72  55  56 SW17G25   29.88R
QUEBEC CITY    MOCLDY    63  59  88 VRB2      29.81F
SHERBROOKE     CLEAR     61  55  82 W5        29.90S

_____REGIONAL ONTARIO LOCATIONS_____


CITY           SKY/WX    TMP DP  RH WIND       PRES   REMARKS
OTTAWA         PTCLDY    68  55  64 S7        29.88S

______KEY______
VSB  - VISIBILITY IN MILES
WCI  - WIND CHILL INDEX
HX   - HEAT INDEX
$$
NNNN



USA.gov is the U.S. government's official web portal to all federal, state and local government web resources and services.